Time,TemperatureF,DewpointF,PressureIn,WindDirection,WindDirectionDegrees,WindSpeedMPH,WindSpeedGustMPH,Humidity,HourlyPrecipIn,Conditions,Clouds,dailyrainin,SoftwareType,DateUTC
2013-08-20 00:09:00,69.7,54.0,25.76,SW,218,5.0,7.0,57,0.00,,,0.00,weatherlink.com 1.10,2013-08-20 06:09:00,
2013-08-20 00:24:00,69.1,54.0,25.76,SSW,210,4.0,6.0,59,0.00,,,0.00,weatherlink.com 1.10,2013-08-20 06:24:00,
2013-08-20 00:39:00,68.7,54.0,25.76,WSW,243,4.0,7.0,60,0.00,,,0.00,weatherlink.com 1.10,2013-08-20 06:39:00,
2013-08-20 00:54:00,69.5,54.0,25.76,SW,214,4.0,8.0,59,0.00,,,0.00,weatherlink.com 1.10,2013-08-20 06:54:00,
2013-08-20 01:09:00,69.9,54.0,25.75,SSW,210,4.0,8.0,58,0.00,,,0.00,weatherlink.com 1.10,2013-08-20 07:09:00,
2013-08-20 01:24:00,67.7,55.0,25.75,South,186,4.0,6.0,63,0.00,,,0.00,weatherlink.com 1.10,2013-08-20 07:24:00,
2013-08-20 01:39:00,67.6,55.0,25.75,SW,217,5.0,8.0,64,0.00,,,0.00,weatherlink.com 1.10,2013-08-20 07:39:00,
2013-08-20 01:55:00,66.8,55.0,25.74,SW,222,3.0,5.0,66,0.00,,,0.00,weatherlink.com 1.10,2013-08-20 07:55:00,
2013-08-20 02:10:00,66.3,55.0,25.74,SSW,201,2.0,5.0,67,0.00,,,0.00,weatherlink.com 1.10,2013-08-20 08:10:00,
2013-08-20 02:25:00,65.4,55.0,25.74,SSW,195,3.0,5.0,69,0.00,,,0.00,weatherlink.com 1.10,2013-08-20 08:25:00,
2013-08-20 02:40:00,65.0,55.0,25.74,SW,225,0.0,0.0,70,0.00,,,0.00,weatherlink.com 1.10,2013-08-20 08:40:00,
2013-08-20 02:55:00,62.3,55.0,25.74,North,5,1.0,2.0,76,0.00,,,0.00,weatherlink.com 1.10,2013-08-20 08:55:00,
2013-08-20 03:10:00,62.3,55.0,25.73,NNW,345,0.0,1.0,77,0.00,,,0.00,weatherlink.com 1.10,2013-08-20 09:10:00,
2013-08-20 03:25:00,63.0,55.0,25.73,NNW,345,0.0,0.0,76,0.00,,,0.00,weatherlink.com 1.10,2013-08-20 09:25:00,
2013-08-20 03:40:00,63.6,56.0,25.73,WSW,245,0.0,1.0,75,0.00,,,0.00,weatherlink.com 1.10,2013-08-20 09:40:00,
2013-08-20 03:55:00,63.9,55.0,25.73,SSW,210,3.0,3.0,74,0.00,,,0.00,weatherlink.com 1.10,2013-08-20 09:55:00,
2013-08-20 04:10:00,64.5,56.0,25.73,SW,222,4.0,6.0,74,0.00,,,0.00,weatherlink.com 1.10,2013-08-20 10:10:00,
2013-08-20 04:25:00,65.0,56.0,25.73,South,188,6.0,6.0,73,0.00,,,0.00,weatherlink.com 1.10,2013-08-20 10:25:00,
2013-08-20 04:40:00,64.2,56.0,25.72,SSW,207,5.0,7.0,74,0.00,,,0.00,weatherlink.com 1.10,2013-08-20 10:40:00,
2013-08-20 04:55:00,64.0,56.0,25.72,SSW,207,4.0,7.0,74,0.00,,,0.00,weatherlink.com 1.10,2013-08-20 10:55:00,
2013-08-20 05:10:00,63.1,55.0,25.72,SSW,205,4.0,7.0,76,0.00,,,0.00,weatherlink.com 1.10,2013-08-20 11:10:00,
2013-08-20 05:25:00,63.2,56.0,25.73,SW,215,3.0,6.0,76,0.00,,,0.00,weatherlink.com 1.10,2013-08-20 11:25:00,
2013-08-20 05:40:00,63.5,55.0,25.73,WSW,243,2.0,7.0,75,0.00,,,0.00,weatherlink.com 1.10,2013-08-20 11:40:00,
2013-08-20 05:55:00,62.5,55.0,25.73,WSW,250,3.0,4.0,77,0.00,,,0.00,weatherlink.com 1.10,2013-08-20 11:55:00,
2013-08-20 06:10:00,62.2,55.0,25.73,West,276,0.0,1.0,77,0.00,,,0.00,weatherlink.com 1.10,2013-08-20 12:10:00,
2013-08-20 06:25:00,62.0,55.0,25.74,West,273,0.0,1.0,78,0.00,,,0.00,weatherlink.com 1.10,2013-08-20 12:25:00,
2013-08-20 06:40:00,62.4,55.0,25.74,West,269,0.0,1.0,78,0.00,,,0.00,weatherlink.com 1.10,2013-08-20 12:40:00,
2013-08-20 06:55:00,63.7,56.0,25.74,SW,219,1.0,2.0,76,0.00,,,0.00,weatherlink.com 1.10,2013-08-20 12:55:00,
2013-08-20 07:10:00,64.5,56.0,25.75,SW,229,4.0,6.0,75,0.00,,,0.00,weatherlink.com 1.10,2013-08-20 13:10:00,
2013-08-20 07:25:00,66.4,58.0,25.74,SW,229,5.0,6.0,74,0.00,,,0.00,weatherlink.com 1.10,2013-08-20 13:25:00,
2013-08-20 07:40:00,68.4,58.0,25.74,South,174,7.0,8.0,70,0.00,,,0.00,weatherlink.com 1.10,2013-08-20 13:40:00,
2013-08-20 07:55:00,70.0,59.0,25.75,SSW,198,6.0,9.0,68,0.00,,,0.00,weatherlink.com 1.10,2013-08-20 13:55:00,
2013-08-20 08:10:00,71.5,59.0,25.75,SW,214,6.0,7.0,65,0.00,,,0.00,weatherlink.com 1.10,2013-08-20 14:10:00,
2013-08-20 08:25:00,73.0,59.0,25.75,SW,218,4.0,6.0,61,0.00,,,0.00,weatherlink.com 1.10,2013-08-20 14:25:00,
2013-08-20 08:40:00,74.7,58.0,25.75,WSW,243,5.0,8.0,57,0.00,,,0.00,weatherlink.com 1.10,2013-08-20 14:40:00,
2013-08-20 08:55:00,76.0,59.0,25.75,WSW,257,1.0,7.0,55,0.00,,,0.00,weatherlink.com 1.10,2013-08-20 14:55:00,
2013-08-20 09:10:00,77.4,58.0,25.74,South,179,5.0,9.0,51,0.00,,,0.00,weatherlink.com 1.10,2013-08-20 15:10:00,
2013-08-20 09:25:00,79.0,58.0,25.75,WSW,238,7.0,7.0,48,0.00,,,0.00,weatherlink.com 1.10,2013-08-20 15:25:00,
2013-08-20 09:40:00,80.5,57.0,25.74,SW,223,4.0,7.0,44,0.00,,,0.00,weatherlink.com 1.10,2013-08-20 15:40:00,
2013-08-20 09:56:00,81.6,58.0,25.74,SW,222,8.0,9.0,44,0.00,,,0.00,weatherlink.com 1.10,2013-08-20 15:56:00,
2013-08-20 10:11:00,82.7,59.0,25.75,SSE,162,5.0,11.0,44,0.00,,,0.00,weatherlink.com 1.10,2013-08-20 16:11:00,
2013-08-20 10:26:00,84.0,58.0,25.75,WSW,249,4.0,11.0,42,0.00,,,0.00,weatherlink.com 1.10,2013-08-20 16:26:00,
2013-08-20 10:41:00,86.1,59.0,25.74,SSE,148,5.0,9.0,40,0.00,,,0.00,weatherlink.com 1.10,2013-08-20 16:41:00,
2013-08-20 10:56:00,86.7,58.0,25.74,SW,228,5.0,11.0,38,0.00,,,0.00,weatherlink.com 1.10,2013-08-20 16:56:00,
2013-08-20 11:11:00,87.8,58.0,25.74,SSW,212,9.0,14.0,36,0.00,,,0.00,weatherlink.com 1.10,2013-08-20 17:11:00,
2013-08-20 11:26:00,89.9,56.0,25.73,WSW,243,7.0,14.0,32,0.00,,,0.00,weatherlink.com 1.10,2013-08-20 17:26:00,
2013-08-20 11:41:00,91.8,55.0,25.73,WSW,256,15.0,15.0,29,0.00,,,0.00,weatherlink.com 1.10,2013-08-20 17:41:00,
2013-08-20 11:56:00,92.5,50.0,25.73,SW,228,7.0,21.0,23,0.00,,,0.00,weatherlink.com 1.10,2013-08-20 17:56:00,
2013-08-20 12:11:00,92.9,49.0,25.73,South,172,11.0,18.0,22,0.00,,,0.00,weatherlink.com 1.10,2013-08-20 18:11:00,
2013-08-20 12:26:00,93.7,51.0,25.73,South,185,7.0,16.0,23,0.00,,,0.00,weatherlink.com 1.10,2013-08-20 18:26:00,
2013-08-20 12:41:00,93.5,52.0,25.73,WSW,241,9.0,18.0,24,0.00,,,0.00,weatherlink.com 1.10,2013-08-20 18:41:00,
2013-08-20 12:56:00,93.2,54.0,25.72,South,186,10.0,14.0,26,0.00,,,0.00,weatherlink.com 1.10,2013-08-20 18:56:00,
2013-08-20 13:11:00,93.9,54.0,25.73,WSW,241,9.0,22.0,26,0.00,,,0.00,weatherlink.com 1.10,2013-08-20 19:11:00,
2013-08-20 13:26:00,94.2,51.0,25.72,WSW,243,6.0,20.0,23,0.00,,,0.00,weatherlink.com 1.10,2013-08-20 19:26:00,
2013-08-20 13:41:00,95.2,51.0,25.72,WNW,285,7.0,18.0,22,0.00,,,0.00,weatherlink.com 1.10,2013-08-20 19:41:00,
2013-08-20 13:56:00,94.8,50.0,25.72,West,267,12.0,18.0,22,0.00,,,0.00,weatherlink.com 1.10,2013-08-20 19:56:00,
2013-08-20 14:11:00,95.1,51.0,25.71,West,260,11.0,16.0,22,0.00,,,0.00,weatherlink.com 1.10,2013-08-20 20:11:00,
2013-08-20 14:26:00,95.8,52.0,25.71,WNW,294,7.0,13.0,23,0.00,,,0.00,weatherlink.com 1.10,2013-08-20 20:26:00,
2013-08-20 14:41:00,95.5,49.0,25.70,WSW,248,11.0,14.0,20,0.00,,,0.00,weatherlink.com 1.10,2013-08-20 20:41:00,
2013-08-20 14:56:00,96.2,46.0,25.70,WNW,297,4.0,15.0,18,0.00,,,0.00,weatherlink.com 1.10,2013-08-20 20:56:00,
2013-08-20 15:11:00,95.9,50.0,25.70,WNW,288,5.0,14.0,21,0.00,,,0.00,weatherlink.com 1.10,2013-08-20 21:11:00,
2013-08-20 15:26:00,95.7,49.0,25.70,West,278,6.0,13.0,20,0.00,,,0.00,weatherlink.com 1.10,2013-08-20 21:26:00,
2013-08-20 15:41:00,96.5,51.0,25.70,West,270,6.0,10.0,21,0.00,,,0.00,weatherlink.com 1.10,2013-08-20 21:41:00,
2013-08-20 15:56:00,96.6,51.0,25.69,WNW,294,4.0,9.0,21,0.00,,,0.00,weatherlink.com 1.10,2013-08-20 21:56:00,
2013-08-20 16:26:00,96.7,51.0,25.69,NW,313,9.0,9.0,21,0.00,,,0.00,weatherlink.com 1.10,2013-08-20 22:26:00,
2013-08-20 16:41:00,97.4,50.0,25.69,WNW,291,2.0,10.0,20,0.00,,,0.00,weatherlink.com 1.10,2013-08-20 22:41:00,
2013-08-20 16:56:00,97.3,50.0,25.69,WNW,294,5.0,6.0,20,0.00,,,0.00,weatherlink.com 1.10,2013-08-20 22:56:00,
2013-08-20 17:11:00,94.5,54.0,25.70,WNW,300,0.0,3.0,25,0.00,,,0.00,weatherlink.com 1.10,2013-08-20 23:11:00,
2013-08-20 17:26:00,93.6,49.0,25.70,WSW,238,0.0,2.0,22,0.00,,,0.00,weatherlink.com 1.10,2013-08-20 23:26:00,
2013-08-20 17:41:00,90.4,57.0,25.70,NNE,22,3.0,4.0,32,0.00,,,0.00,weatherlink.com 1.10,2013-08-20 23:41:00,
2013-08-20 17:56:00,89.0,58.0,25.70,North,357,8.0,12.0,35,0.00,,,0.00,weatherlink.com 1.10,2013-08-20 23:56:00,
2013-08-20 18:12:00,90.6,58.0,25.70,ESE,122,7.0,10.0,33,0.00,,,0.00,weatherlink.com 1.10,2013-08-21 00:12:00,
2013-08-20 18:27:00,90.9,56.0,25.70,NNE,25,9.0,11.0,31,0.00,,,0.00,weatherlink.com 1.10,2013-08-21 00:27:00,
2013-08-20 18:42:00,89.9,53.0,25.70,NNE,16,1.0,3.0,28,0.00,,,0.00,weatherlink.com 1.10,2013-08-21 00:42:00,
2013-08-20 18:57:00,89.9,51.0,25.71,WNW,296,0.0,2.0,26,0.00,,,0.00,weatherlink.com 1.10,2013-08-21 00:57:00,
2013-08-20 19:12:00,87.4,59.0,25.73,SSE,156,4.0,5.0,38,0.00,,,0.00,weatherlink.com 1.10,2013-08-21 01:12:00,
2013-08-20 19:28:00,87.5,57.0,25.73,NW,307,2.0,3.0,35,0.00,,,0.00,weatherlink.com 1.10,2013-08-21 01:28:00,
2013-08-20 19:42:00,86.1,54.0,25.73,NNE,19,0.0,1.0,33,0.00,,,0.00,weatherlink.com 1.10,2013-08-21 01:42:00,
2013-08-20 19:57:00,84.4,58.0,25.74,WSW,238,1.0,2.0,40,0.00,,,0.00,weatherlink.com 1.10,2013-08-21 01:57:00,
2013-08-20 20:12:00,83.2,58.0,25.75,NE,46,0.0,3.0,43,0.00,,,0.00,weatherlink.com 1.10,2013-08-21 02:12:00,
2013-08-20 20:27:00,82.7,57.0,25.75,ENE,63,1.0,3.0,42,0.00,,,0.00,weatherlink.com 1.10,2013-08-21 02:27:00,
2013-08-20 20:42:00,82.5,59.0,25.76,WSW,255,1.0,1.0,45,0.00,,,0.00,weatherlink.com 1.10,2013-08-21 02:42:00,
2013-08-20 20:57:00,81.6,59.0,25.76,NW,322,0.0,2.0,47,0.00,,,0.00,weatherlink.com 1.10,2013-08-21 02:57:00,
2013-08-20 21:12:00,82.9,61.0,25.77,SW,228,3.0,5.0,48,0.00,,,0.00,weatherlink.com 1.10,2013-08-21 03:12:00,
2013-08-20 21:27:00,82.1,61.0,25.77,South,184,3.0,4.0,49,0.00,,,0.00,weatherlink.com 1.10,2013-08-21 03:27:00,
2013-08-20 21:42:00,80.2,61.0,25.77,NE,47,0.0,2.0,53,0.00,,,0.00,weatherlink.com 1.10,2013-08-21 03:42:00,
2013-08-20 21:57:00,80.2,58.0,25.77,NE,35,0.0,5.0,47,0.00,,,0.00,weatherlink.com 1.10,2013-08-21 03:57:00,
2013-08-20 22:12:00,81.2,57.0,25.77,ESE,106,3.0,4.0,43,0.00,,,0.00,weatherlink.com 1.10,2013-08-21 04:12:00,
2013-08-20 22:27:00,80.8,58.0,25.78,SSW,212,0.0,3.0,46,0.00,,,0.00,weatherlink.com 1.10,2013-08-21 04:27:00,
2013-08-20 22:42:00,80.4,58.0,25.78,ENE,67,1.0,2.0,46,0.00,,,0.00,weatherlink.com 1.10,2013-08-21 04:42:00,
2013-08-20 22:57:00,79.7,58.0,25.79,NNE,32,0.0,3.0,47,0.00,,,0.00,weatherlink.com 1.10,2013-08-21 04:57:00,
2013-08-20 23:12:00,77.7,61.0,25.79,NNE,18,5.0,11.0,57,0.00,,,0.00,weatherlink.com 1.10,2013-08-21 05:12:00,
2013-08-20 23:27:00,77.0,60.0,25.79,NNE,22,2.0,8.0,57,0.00,,,0.00,weatherlink.com 1.10,2013-08-21 05:27:00,
2013-08-20 23:42:00,77.2,58.0,25.79,NW,319,6.0,12.0,52,0.00,,,0.00,weatherlink.com 1.10,2013-08-21 05:42:00,
2013-08-20 23:57:00,78.1,56.0,25.78,North,5,5.0,8.0,47,0.00,,,0.00,weatherlink.com 1.10,2013-08-21 05:57:00,